[[{"header":{"parameterUnit":"m.s-1","parameterCategory":1,"la1":30.2991,"la2":30.254,"lo1":-89.0895,"lo2":-89.0444,"dy":0.0017,"dx":0.0017,"nx":28,"ny":28,"refTime":"2023-08-27T21:00:00:Z","depth":0,"parameterNumber":2,"parameterNumberName":"U-component_of_WINDS"},"data":[0,0,0,0,0,0,0,0,0,0,0,0,0,0,0,0,0,0,0,0,0,0,0,0,0,0,0,0,0,0,0,0,0,0,0,0,0,0,0,0,0,0,0,0,0,0,0,0,0,0,0,0,0,0,0,0,0,0,-3.3568,-3.3569,0,-3.3605,-3.3606,-3.3606,-3.3516,-3.3514,-3.3511,-3.3508,-3.355,-3.3553,-3.3557,0,0,0,0,0,0,0,0,0,0,0,0,0,-3.3426,-3.3429,-3.3568,-3.3569,-3.3569,-3.3605,-3.3606,-3.3606,-3.3517,-3.3514,-3.351,-3.3507,-3.3548,-3.3553,-3.3557,0,0,0,0,0,0,0,0,0,0,0,0,0,-3.3478,-3.343,-3.3568,-3.3529,-3.3526,-3.3605,-3.3606,-3.3606,-3.3518,-3.3513,-3.3509,-3.3505,-3.3547,-3.3552,-3.3558,-3.3678,0,0,-3.3575,-3.3577,0,0,0,0,0,0,0,0,-3.3475,-3.3483,-3.3534,-3.3532,-3.3529,-3.3552,-3.357,-3.363,-3.3519,-3.3521,-3.3508,-3.3503,-3.3554,-3.3559,-3.3575,-3.368,-3.3681,-3.3576,-3.3579,-3.3581,-3.3583,0,0,0,0,0,0,0,-3.3472,-3.3481,-3.3583,-3.3535,-3.3532,-3.3511,-3.3514,-3.3581,-3.3561,-3.352,-3.3514,-3.3519,-3.3552,-3.357,-3.3575,-3.3682,-3.3575,-3.358,-3.3584,-3.3586,-3.3891,-3.3895,0,0,0,0,0,0,-3.3473,-3.3479,-3.3582,-3.3584,-3.3491,-3.3517,-3.352,-3.3549,-3.356,-3.3558,-3.3523,-3.3515,-3.3562,-3.3569,-3.3577,-3.372,-3.3581,-3.3587,-3.359,-3.3886,-3.3892,-3.3897,0,0,0,0,0,0,-3.347,-3.3483,-3.358,-3.353,-3.3541,-3.3524,-3.3557,-3.3552,-3.357,-3.3562,-3.3558,-3.3545,-3.3559,-3.3569,-3.3654,-3.372,-3.3589,-3.3594,-3.3881,-3.3888,-3.3894,-3.4007,0,0,0,0,0,0,-3.3466,-3.3482,-3.3526,-3.3531,-3.3544,-3.3656,-3.3561,-3.3555,-3.3579,-3.3569,-3.3582,-3.358,-3.3557,-3.3646,-3.3659,-3.3725,-3.3599,-3.3875,-3.3884,-3.3892,-3.3997,-3.4017,-3.4034,0,0,0,0,0,-3.3461,-3.3556,-3.3529,-3.3542,-3.3598,-3.366,-3.3667,-3.3637,-3.3585,-3.363,-3.3626,-3.3579,-3.3711,-3.3655,-3.367,-3.3739,-3.387,-3.3881,-3.3891,-3.3989,-3.4013,-3.4033,0,0,0,0,0,0,-3.356,-3.3556,-3.3526,-3.3625,-3.3643,-3.3644,-3.37,-3.3663,-3.3697,-3.3687,-3.365,-3.3654,-3.3747,-3.3751,-3.3689,-3.3857,-3.3782,-3.3796,-3.3851,-3.3874,-3.3892,-3.3889,-3.3603,0,0,0,0,0,-3.3593,-3.3642,-3.3636,-3.3725,-3.3735,-3.3717,-3.3742,-3.3718,-3.3736,-3.3744,-3.3745,-3.3766,-3.3812,-3.3843,-3.3884,-3.3997,-3.4,-3.4052,-3.407,-3.4085,-3.4098,-3.4162,-3.4185,-3.3932,-3.3932,-3.3931,0,0,-3.3662,-3.3666,-3.3699,-3.3745,-3.3756,-3.3809,-3.3724,-3.3783,-3.3823,-3.3753,-3.3834,-3.3836,-3.3857,-3.3957,-3.4001,-3.3963,-3.4169,-3.4099,-3.4111,-3.4116,-3.4175,-3.4199,-3.422,-3.3939,-3.3938,-3.3937,0,0,-3.3816,-3.3823,-3.3898,-3.3912,-3.393,-3.3917,-3.3936,-3.3943,-3.3942,-3.4022,-3.3971,-3.4019,-3.4098,-3.4116,-3.4136,-3.4299,-3.4259,-3.4314,-3.441,-3.4472,-3.4492,-3.451,-3.4571,-3.4593,-3.4327,-3.4327,-3.4327,0,-3.39,-3.3977,-3.3942,-3.4006,-3.4028,-3.3967,-3.4045,-3.406,-3.4091,-3.411,-3.4066,-3.4167,-3.4176,-3.4281,-3.4321,-3.4338,-3.436,-3.4313,-3.4492,-3.4509,-3.4525,-3.4583,-3.4606,-3.4334,-3.4333,-3.4332,-3.4332,0,-3.408,-3.4135,-3.4194,-3.4226,-3.4255,-3.4325,-3.4304,-3.4338,-3.4312,-3.4305,-3.4389,-3.4398,-3.4442,-3.4465,-3.444,-3.4568,-3.4545,-3.4497,-3.4421,-3.4556,-3.461,-3.4632,-3.4343,-3.4341,-3.4339,-3.4337,0,0,-3.4296,-3.4309,-3.4332,-3.4347,-3.4364,-3.4406,-3.4475,-3.4517,-3.4549,-3.4573,-3.4632,-3.4702,-3.4659,-3.4681,-3.4658,-3.4712,-3.4845,-3.4659,-3.4659,-3.4695,-3.499,-3.5027,-3.5053,-3.4818,-3.4822,-3.4825,-3.4989,0,-3.445,-3.4567,-3.4539,-3.4656,-3.4707,-3.4651,-3.4712,-3.473,-3.4726,-3.477,-3.4766,-3.4817,-3.4755,-3.4769,-3.482,-3.4818,-3.4904,-3.4805,-3.4875,-3.4878,-3.4873,-3.5081,-3.5119,-3.5273,-3.501,-3.5013,-3.5016,0,-3.4644,-3.4676,-3.4798,-3.4809,-3.483,-3.4884,-3.4922,-3.4965,-3.4986,-3.4979,-3.5006,-3.4973,-3.5044,-3.4966,-3.5066,-3.4999,-3.5027,-3.503,-3.5036,-3.5042,-3.4956,-3.5095,-3.5321,-3.5345,-3.5048,-3.5046,-3.5043,0,-3.4792,-3.4866,-3.4949,-3.4963,-3.4977,-3.5018,-3.5026,-3.5042,-3.5071,-3.5105,-3.5123,-3.5165,-3.5189,-3.5224,-3.5204,-3.5149,-3.5309,-3.5229,-3.5307,-3.5308,-3.5344,-3.5343,-3.558,-3.5359,-3.5359,-3.5358,-3.5358,0,-3.4967,-3.5045,-3.5016,-3.5067,-3.5154,-3.5122,-3.5209,-3.5211,-3.5226,-3.5279,-3.5233,-3.5284,-3.5254,-3.5304,-3.5289,-3.5376,-3.5386,-3.5385,-3.538,-3.539,-3.5391,-3.5408,-3.5398,-3.5364,-3.5363,-3.5362,-3.5361,0,-3.5148,-3.5131,-3.5218,-3.5225,-3.5229,-3.5293,-3.5299,-3.5349,-3.5341,-3.5409,-3.5423,-3.5413,-3.5469,-3.5452,-3.5513,-3.5504,-3.5614,-3.5595,-3.5607,-3.5603,-3.5683,-3.5677,-3.5942,-3.5977,-3.5731,-3.5734,-3.5736,0,-3.5261,-3.532,-3.5333,-3.5365,-3.5376,-3.5427,-3.5456,-3.5428,-3.5461,-3.549,-3.5537,-3.5589,-3.5629,-3.5722,-3.5721,-3.5768,-3.5751,-3.5841,-3.5758,-3.5767,-3.5756,-3.5753,-3.5761,-3.5858,-3.5861,-3.5863,-3.5865,0,-3.5466,-3.5455,-3.5497,-3.5539,-3.5574,-3.5605,-3.5632,-3.5661,-3.5636,-3.5675,-3.5731,-3.5762,-3.5825,-3.5878,-3.5922,-3.5932,-3.5897,-3.5891,-3.5912,-3.5924,-3.5929,-3.593,-3.5654,-3.5885,-3.5883,-3.5882,-3.5881,-3.588,-3.5617,-3.5668,-3.5686,-3.5736,-3.5753,-3.578,-3.5828,-3.5827,-3.5873,-3.5921,-3.5902,-3.5968,-3.5991,-3.6045,-3.6062,-3.6115,-3.6081,-3.6111,-3.6119,-3.6128,-3.6139,-3.5919,-3.6122,-3.6122,-3.6121,-3.6121,-3.612,0,-3.5822,-3.5831,-3.5877,-3.5917,-3.5957,-3.5917,-3.5946,-3.5983,-3.6041,-3.6064,-3.6105,-3.6172,-3.6224,-3.6228,-3.6278,-3.632,-3.6305,-3.6334,-3.6332,-3.6336,-3.6165,-3.6143,-3.6346,-3.6346,-3.6346,-3.6346,-3.6346,-3.6346,-3.5933,-3.6017,-3.6009,-3.6103,-3.6112,-3.6175,-3.6195,-3.6221,-3.624,-3.6316,-3.6359,-3.6361,-3.6378,-3.6429,-3.6476,-3.6476,-3.6498,-3.6535,-3.6529,-3.637,-3.6347,-3.6326,-3.6305,-3.6539,-3.6539,-3.6696,-3.6697,-3.6698]},{"header":{"parameterUnit":"m.s-1","parameterCategory":1,"la1":30.2991,"la2":30.254,"lo1":-89.0895,"lo2":-89.0444,"dy":0.0017,"dx":0.0017,"nx":28,"ny":28,"refTime":"2023-08-27T21:00:00:Z","depth":0,"parameterNumber":3,"parameterNumberName":"V-component_of_WINDS"},"data":[0,0,0,0,0,0,0,0,0,0,0,0,0,0,0,0,0,0,0,0,0,0,0,0,0,0,0,0,0,0,0,0,0,0,0,0,0,0,0,0,0,0,0,0,0,0,0,0,0,0,0,0,0,0,0,0,0,0,0.7996,0.7997,0,0.8087,0.8088,0.8089,0.8171,0.8172,0.8173,0.8174,0.8264,0.8265,0.8267,0,0,0,0,0,0,0,0,0,0,0,0,0,0.7889,0.789,0.7996,0.7997,0.7998,0.8087,0.8088,0.8089,0.8171,0.8172,0.8173,0.8174,0.8263,0.8265,0.8267,0,0,0,0,0,0,0,0,0,0,0,0,0,0.7953,0.7891,0.7996,0.805,0.8055,0.8087,0.8088,0.809,0.8171,0.8172,0.8174,0.8175,0.8263,0.8265,0.8267,0.8251,0,0,0.8274,0.8275,0,0,0,0,0,0,0,0,0.7949,0.7957,0.8041,0.8046,0.8053,0.8119,0.8083,0.8144,0.817,0.8127,0.8174,0.8176,0.8214,0.8221,0.8234,0.8255,0.8259,0.8274,0.8275,0.8276,0.8277,0,0,0,0,0,0,0,0.7945,0.7953,0.8032,0.8042,0.8049,0.8068,0.8079,0.8095,0.8161,0.8131,0.8137,0.8147,0.8218,0.8232,0.8237,0.8261,0.8274,0.8276,0.8277,0.8278,0.827,0.8269,0,0,0,0,0,0,0.7932,0.7949,0.8029,0.8035,0.8003,0.8069,0.8081,0.8096,0.8161,0.8173,0.8145,0.815,0.8227,0.8234,0.824,0.8224,0.8276,0.8278,0.828,0.8272,0.827,0.8269,0,0,0,0,0,0,0.793,0.7939,0.8025,0.7994,0.8006,0.8069,0.8086,0.8097,0.8112,0.8172,0.8184,0.8148,0.8229,0.8237,0.8248,0.8228,0.8279,0.8281,0.8274,0.8271,0.8269,0.8192,0,0,0,0,0,0,0.7926,0.7937,0.7933,0.7993,0.8007,0.8032,0.8085,0.8098,0.8116,0.8123,0.8178,0.8188,0.8231,0.8244,0.825,0.8232,0.8283,0.8276,0.8273,0.827,0.8196,0.8187,0.818,0,0,0,0,0,0.7922,0.7908,0.7932,0.7942,0.8004,0.8031,0.8039,0.8089,0.8114,0.8109,0.8148,0.8187,0.823,0.8244,0.8252,0.8234,0.8277,0.8274,0.827,0.82,0.8189,0.818,0,0,0,0,0,0,0.7843,0.7916,0.7945,0.7949,0.7983,0.8045,0.804,0.8076,0.8103,0.8108,0.8168,0.818,0.8182,0.821,0.8225,0.8221,0.8259,0.8256,0.8203,0.8193,0.8184,0.8177,0.8285,0,0,0,0,0,0.7826,0.7843,0.7906,0.7904,0.792,0.7977,0.799,0.8026,0.8063,0.8078,0.8117,0.8151,0.8172,0.8184,0.8207,0.8202,0.8213,0.8193,0.8185,0.8177,0.8174,0.817,0.8162,0.8257,0.8257,0.8257,0,0,0.7791,0.7834,0.7841,0.7889,0.792,0.7934,0.7988,0.8002,0.8013,0.808,0.8091,0.8121,0.8162,0.8164,0.8166,0.8187,0.8151,0.8173,0.8167,0.8168,0.8166,0.8157,0.8149,0.8255,0.8255,0.8256,0,0,0.7735,0.777,0.777,0.78,0.7845,0.7883,0.7883,0.7939,0.7961,0.7974,0.8024,0.8037,0.8073,0.8099,0.8118,0.8069,0.8105,0.8075,0.803,0.8026,0.8018,0.8012,0.7992,0.7984,0.8072,0.8072,0.8072,0,0.7685,0.7711,0.7766,0.7776,0.7795,0.7857,0.7857,0.7882,0.7932,0.7943,0.7965,0.801,0.8042,0.8049,0.8037,0.8051,0.8051,0.8068,0.8015,0.8009,0.8004,0.7985,0.7978,0.8068,0.8068,0.8069,0.8069,0,0.7646,0.7663,0.7658,0.7704,0.7723,0.7728,0.7782,0.7794,0.7828,0.7863,0.7873,0.7914,0.7945,0.795,0.7984,0.7961,0.7972,0.8004,0.8042,0.7989,0.7973,0.7967,0.8062,0.8063,0.8065,0.8066,0,0,0.7542,0.7619,0.7616,0.7636,0.7691,0.7704,0.7711,0.7742,0.7749,0.7782,0.7787,0.7816,0.7845,0.7865,0.7902,0.7898,0.7854,0.7931,0.7932,0.7912,0.7829,0.7803,0.7794,0.7879,0.7878,0.7877,0.7825,0,0.7492,0.7509,0.7558,0.7559,0.7573,0.7632,0.7637,0.767,0.7702,0.7718,0.7754,0.7772,0.7811,0.7823,0.7823,0.7859,0.7838,0.7864,0.7882,0.7882,0.7867,0.7786,0.7759,0.7707,0.7819,0.7818,0.7817,0,0.7436,0.7464,0.7467,0.7518,0.7526,0.753,0.7562,0.7577,0.7614,0.7638,0.766,0.7701,0.7709,0.7747,0.7758,0.7775,0.7785,0.7804,0.7803,0.7805,0.7844,0.7782,0.7692,0.7683,0.7808,0.7809,0.781,0,0.7356,0.7395,0.7401,0.7417,0.7479,0.7479,0.7505,0.7544,0.7559,0.7586,0.7596,0.7623,0.7638,0.7657,0.7704,0.7727,0.7708,0.775,0.7726,0.7724,0.7718,0.7717,0.7625,0.7728,0.7729,0.7729,0.7729,0,0.7294,0.7292,0.7365,0.7368,0.7367,0.7424,0.7421,0.7452,0.7486,0.7494,0.7548,0.7554,0.7616,0.763,0.7666,0.7668,0.7675,0.7693,0.7702,0.7686,0.7684,0.7692,0.7696,0.7727,0.7727,0.7728,0.7728,0,0.7203,0.7253,0.7262,0.7319,0.7333,0.733,0.7378,0.7382,0.7418,0.7428,0.7434,0.7489,0.7508,0.7557,0.7588,0.7612,0.7603,0.7622,0.759,0.7595,0.7567,0.7568,0.7475,0.7465,0.7577,0.7576,0.7575,0,0.7159,0.7159,0.7216,0.7226,0.7249,0.7264,0.728,0.7335,0.7348,0.739,0.7388,0.7411,0.7432,0.7459,0.7501,0.7524,0.7543,0.7509,0.7546,0.753,0.7538,0.7537,0.7536,0.7499,0.7498,0.7496,0.7495,0,0.7074,0.7098,0.7119,0.7147,0.7163,0.7188,0.7216,0.7221,0.7282,0.7294,0.7314,0.733,0.7362,0.7382,0.7412,0.7437,0.7475,0.7484,0.7479,0.7461,0.7442,0.7449,0.7564,0.7485,0.7486,0.7487,0.7487,0.7488,0.7004,0.7005,0.7045,0.7065,0.7092,0.7116,0.7122,0.7158,0.7176,0.7206,0.7238,0.7253,0.7289,0.7333,0.7355,0.7367,0.7387,0.7381,0.7379,0.7376,0.7367,0.7442,0.7373,0.7373,0.7374,0.7374,0.7374,0,0.6919,0.6947,0.6965,0.7002,0.7017,0.7054,0.7086,0.7095,0.7108,0.7139,0.7159,0.718,0.72,0.7244,0.7268,0.7268,0.7286,0.7273,0.7272,0.7276,0.7349,0.735,0.7257,0.7258,0.7258,0.7258,0.7258,0.7258,0.6876,0.688,0.6908,0.6925,0.6954,0.6969,0.6984,0.7006,0.703,0.7052,0.7069,0.7098,0.7133,0.716,0.7179,0.7192,0.7196,0.7176,0.7193,0.726,0.7271,0.7282,0.7282,0.7178,0.7177,0.7119,0.7119,0.7118]}]]